[[{"header":{"parameterUnit":"m.s-1","parameterCategory":1,"la1":30.2991,"la2":30.254,"lo1":-89.0895,"lo2":-89.0444,"dy":0.0017,"dx":0.0017,"nx":28,"ny":28,"refTime":"2024-02-15T03:00:00:Z","depth":0,"parameterNumber":2,"parameterNumberName":"U-component_of_WINDS"},"data":[0,0,0,0,0,0,0,0,0,0,0,0,0,0,0,0,0,0,0,0,0,0,0,0,0,0,0,0,0,0,0,0,0,0,0,0,0,0,0,0,0,0,0,0,0,0,0,0,0,0,0,0,0,0,0,0,0,0,-0.6075,-0.6075,0,-0.6083,-0.6083,-0.6083,-0.6056,-0.6055,-0.6054,-0.6053,-0.6063,-0.6064,-0.6065,0,0,0,0,0,0,0,0,0,0,0,0,0,-0.604,-0.604,-0.6075,-0.6075,-0.6075,-0.6082,-0.6083,-0.6083,-0.6056,-0.6055,-0.6054,-0.6053,-0.6063,-0.6064,-0.6065,0,0,0,0,0,0,0,0,0,0,0,0,0,-0.6052,-0.6041,-0.6075,-0.6063,-0.6062,-0.6082,-0.6083,-0.6083,-0.6056,-0.6055,-0.6054,-0.6053,-0.6062,-0.6064,-0.6065,-0.6099,0,0,-0.607,-0.6071,0,0,0,0,0,0,0,0,-0.6051,-0.6053,-0.6064,-0.6064,-0.6062,-0.6067,-0.6074,-0.6088,-0.6056,-0.6058,-0.6053,-0.6052,-0.6066,-0.6067,-0.6071,-0.61,-0.61,-0.607,-0.6071,-0.6072,-0.6072,0,0,0,0,0,0,0,-0.605,-0.6053,-0.6078,-0.6065,-0.6063,-0.6057,-0.6058,-0.6076,-0.6069,-0.6058,-0.6056,-0.6057,-0.6065,-0.6069,-0.6071,-0.61,-0.607,-0.6072,-0.6072,-0.6073,-0.6158,-0.6159,0,0,0,0,0,0,-0.6051,-0.6052,-0.6078,-0.6078,-0.6054,-0.6059,-0.606,-0.6067,-0.6068,-0.6067,-0.6058,-0.6056,-0.6067,-0.6069,-0.6071,-0.6112,-0.6072,-0.6073,-0.6074,-0.6157,-0.6158,-0.616,0,0,0,0,0,0,-0.605,-0.6053,-0.6077,-0.6065,-0.6067,-0.6061,-0.6069,-0.6068,-0.6072,-0.6069,-0.6067,-0.6064,-0.6067,-0.6069,-0.6092,-0.6112,-0.6074,-0.6075,-0.6155,-0.6157,-0.6159,-0.6192,0,0,0,0,0,0,-0.6049,-0.6053,-0.6066,-0.6065,-0.6068,-0.6098,-0.607,-0.6069,-0.6075,-0.6072,-0.6074,-0.6073,-0.6066,-0.609,-0.6094,-0.6113,-0.6076,-0.6153,-0.6156,-0.6158,-0.619,-0.6195,-0.62,0,0,0,0,0,-0.6048,-0.6075,-0.6066,-0.607,-0.6083,-0.6099,-0.6101,-0.6091,-0.6076,-0.6089,-0.6087,-0.6073,-0.6109,-0.6093,-0.6097,-0.6117,-0.6152,-0.6155,-0.6158,-0.6187,-0.6194,-0.62,0,0,0,0,0,0,-0.6078,-0.6075,-0.6065,-0.6092,-0.6096,-0.6095,-0.611,-0.6099,-0.6108,-0.6105,-0.6093,-0.6094,-0.612,-0.612,-0.6103,-0.615,-0.6128,-0.6132,-0.6149,-0.6155,-0.616,-0.616,-0.6078,0,0,0,0,0,-0.6088,-0.6101,-0.6097,-0.6121,-0.6124,-0.6117,-0.6123,-0.6116,-0.612,-0.6121,-0.6121,-0.6126,-0.6138,-0.6146,-0.6158,-0.6189,-0.619,-0.6205,-0.621,-0.6214,-0.6218,-0.6236,-0.6243,-0.617,-0.617,-0.617,0,0,-0.6109,-0.6108,-0.6117,-0.6128,-0.613,-0.6144,-0.6118,-0.6134,-0.6145,-0.6124,-0.6146,-0.6146,-0.6151,-0.6179,-0.6191,-0.618,-0.6239,-0.6218,-0.6222,-0.6223,-0.624,-0.6247,-0.6253,-0.6172,-0.6171,-0.6171,0,0,-0.6153,-0.6154,-0.6174,-0.6177,-0.618,-0.6176,-0.6181,-0.6181,-0.618,-0.6202,-0.6186,-0.6199,-0.622,-0.6225,-0.623,-0.6276,-0.6265,-0.628,-0.6308,-0.6326,-0.6332,-0.6337,-0.6355,-0.6361,-0.6284,-0.6284,-0.6284,0,-0.6179,-0.6199,-0.6187,-0.6204,-0.621,-0.619,-0.6212,-0.6215,-0.6222,-0.6227,-0.6214,-0.6241,-0.6243,-0.6272,-0.6283,-0.6288,-0.6294,-0.628,-0.6332,-0.6337,-0.6341,-0.6358,-0.6365,-0.6286,-0.6286,-0.6286,-0.6285,0,-0.623,-0.6244,-0.6261,-0.6268,-0.6275,-0.6295,-0.6286,-0.6295,-0.6287,-0.6284,-0.6307,-0.6308,-0.632,-0.6326,-0.6318,-0.6354,-0.6348,-0.6334,-0.6312,-0.6351,-0.6366,-0.6372,-0.6289,-0.6288,-0.6288,-0.6287,0,0,-0.6295,-0.6295,-0.6301,-0.6304,-0.6307,-0.6318,-0.6337,-0.6347,-0.6356,-0.6361,-0.6378,-0.6396,-0.6383,-0.6389,-0.6381,-0.6396,-0.6435,-0.6381,-0.6381,-0.6392,-0.6476,-0.6488,-0.6495,-0.6427,-0.6428,-0.6429,-0.6476,0,-0.6339,-0.6371,-0.6361,-0.6393,-0.6407,-0.6389,-0.6405,-0.6409,-0.6407,-0.6419,-0.6416,-0.643,-0.6411,-0.6415,-0.6429,-0.6427,-0.6452,-0.6423,-0.6443,-0.6444,-0.6443,-0.6503,-0.6515,-0.656,-0.6482,-0.6483,-0.6484,0,-0.6396,-0.6403,-0.6437,-0.6438,-0.6443,-0.6458,-0.6467,-0.6478,-0.6483,-0.648,-0.6486,-0.6476,-0.6495,-0.6472,-0.65,-0.648,-0.6488,-0.6488,-0.649,-0.6492,-0.6467,-0.6508,-0.6574,-0.6581,-0.6493,-0.6492,-0.6492,0,-0.6441,-0.6459,-0.6482,-0.6485,-0.6486,-0.6497,-0.6498,-0.6501,-0.6508,-0.6517,-0.6522,-0.6532,-0.6538,-0.6547,-0.654,-0.6524,-0.6569,-0.6545,-0.6568,-0.6569,-0.658,-0.6579,-0.6649,-0.6583,-0.6582,-0.6582,-0.6582,0,-0.6493,-0.6514,-0.6502,-0.6517,-0.654,-0.6529,-0.6553,-0.6552,-0.6555,-0.6569,-0.6554,-0.6568,-0.6557,-0.6571,-0.6565,-0.6589,-0.6592,-0.6591,-0.659,-0.6593,-0.6593,-0.6598,-0.6596,-0.6584,-0.6584,-0.6583,-0.6583,0,-0.6548,-0.654,-0.6564,-0.6563,-0.6563,-0.6581,-0.658,-0.6594,-0.659,-0.6608,-0.6612,-0.6607,-0.6622,-0.6615,-0.6631,-0.6627,-0.6659,-0.6652,-0.6657,-0.6656,-0.668,-0.6678,-0.6756,-0.6766,-0.6692,-0.6693,-0.6693,0,-0.6582,-0.6598,-0.6598,-0.6606,-0.6608,-0.6622,-0.6629,-0.6618,-0.6627,-0.6633,-0.6646,-0.6659,-0.6669,-0.6694,-0.6692,-0.6704,-0.6699,-0.6726,-0.6701,-0.6704,-0.6701,-0.6701,-0.6703,-0.6731,-0.6732,-0.6732,-0.6733,0,-0.6643,-0.6639,-0.6649,-0.6659,-0.6668,-0.6675,-0.6681,-0.6689,-0.6678,-0.6689,-0.6703,-0.6711,-0.6727,-0.6741,-0.6752,-0.6754,-0.6743,-0.674,-0.6747,-0.6751,-0.6753,-0.6754,-0.6672,-0.6739,-0.6738,-0.6738,-0.6738,-0.6737,-0.6689,-0.6703,-0.6706,-0.6718,-0.6721,-0.6727,-0.674,-0.6738,-0.675,-0.6762,-0.6755,-0.6772,-0.6777,-0.679,-0.6794,-0.6808,-0.6798,-0.6806,-0.6809,-0.6811,-0.6815,-0.675,-0.681,-0.6809,-0.6809,-0.6809,-0.6809,0,-0.6751,-0.6751,-0.6763,-0.6772,-0.6782,-0.6769,-0.6775,-0.6785,-0.68,-0.6805,-0.6815,-0.6832,-0.6846,-0.6845,-0.6858,-0.6869,-0.6864,-0.6873,-0.6873,-0.6874,-0.6823,-0.6817,-0.6877,-0.6877,-0.6877,-0.6877,-0.6877,-0.6877,-0.6784,-0.6807,-0.6803,-0.6828,-0.6828,-0.6845,-0.685,-0.6856,-0.6859,-0.6879,-0.689,-0.6889,-0.6892,-0.6905,-0.6917,-0.6917,-0.6922,-0.6934,-0.6931,-0.6884,-0.6877,-0.6871,-0.6865,-0.6935,-0.6935,-0.6981,-0.6981,-0.6982]},{"header":{"parameterUnit":"m.s-1","parameterCategory":1,"la1":30.2991,"la2":30.254,"lo1":-89.0895,"lo2":-89.0444,"dy":0.0017,"dx":0.0017,"nx":28,"ny":28,"refTime":"2024-02-15T03:00:00:Z","depth":0,"parameterNumber":3,"parameterNumberName":"V-component_of_WINDS"},"data":[0,0,0,0,0,0,0,0,0,0,0,0,0,0,0,0,0,0,0,0,0,0,0,0,0,0,0,0,0,0,0,0,0,0,0,0,0,0,0,0,0,0,0,0,0,0,0,0,0,0,0,0,0,0,0,0,0,0,0.0488,0.0489,0,0.0512,0.0512,0.0512,0.0517,0.0517,0.0516,0.0516,0.0541,0.0542,0.0543,0,0,0,0,0,0,0,0,0,0,0,0,0,0.045,0.0451,0.0488,0.0489,0.0489,0.0512,0.0512,0.0512,0.0517,0.0516,0.0516,0.0516,0.0541,0.0542,0.0543,0,0,0,0,0,0,0,0,0,0,0,0,0,0.0469,0.0451,0.0488,0.0494,0.0495,0.0511,0.0512,0.0512,0.0517,0.0516,0.0516,0.0516,0.0541,0.0542,0.0543,0.0556,0,0,0.0547,0.0547,0,0,0,0,0,0,0,0,0.0468,0.0471,0.0493,0.0494,0.0494,0.0511,0.0508,0.0527,0.0517,0.0508,0.0516,0.0516,0.0531,0.0533,0.0538,0.0557,0.0558,0.0547,0.0548,0.0548,0.0549,0,0,0,0,0,0,0,0.0467,0.047,0.0498,0.0493,0.0494,0.0496,0.0498,0.0511,0.0521,0.0509,0.051,0.0512,0.0532,0.0537,0.0539,0.0559,0.0547,0.0548,0.0549,0.0549,0.0591,0.0591,0,0,0,0,0,0,0.0464,0.0469,0.0497,0.0498,0.048,0.0497,0.05,0.0506,0.0521,0.0523,0.0512,0.0512,0.0535,0.0538,0.054,0.0557,0.0548,0.0549,0.055,0.0591,0.0591,0.0592,0,0,0,0,0,0,0.0464,0.0467,0.0496,0.0484,0.0487,0.0498,0.0505,0.0507,0.0512,0.0523,0.0525,0.0516,0.0535,0.0538,0.0552,0.0558,0.055,0.0551,0.059,0.0591,0.0591,0.0591,0,0,0,0,0,0,0.0462,0.0467,0.0471,0.0484,0.0488,0.0507,0.0505,0.0507,0.0514,0.0514,0.0527,0.0529,0.0535,0.055,0.0554,0.056,0.0552,0.059,0.0591,0.0591,0.0591,0.0592,0.0593,0,0,0,0,0,0.0461,0.047,0.0471,0.0475,0.0494,0.0508,0.051,0.0516,0.0514,0.0519,0.0527,0.0529,0.0557,0.0552,0.0555,0.0562,0.059,0.059,0.0591,0.0591,0.0592,0.0593,0,0,0,0,0,0,0.0459,0.0472,0.0473,0.0487,0.0496,0.0508,0.0515,0.0517,0.0528,0.0527,0.0535,0.0538,0.0552,0.0558,0.0552,0.0576,0.0573,0.0575,0.0572,0.0573,0.0574,0.0572,0.0553,0,0,0,0,0,0.0459,0.0469,0.048,0.0491,0.0496,0.0505,0.0511,0.0515,0.0525,0.0529,0.0537,0.0548,0.0559,0.0566,0.0577,0.0592,0.0595,0.0598,0.0599,0.06,0.0601,0.0611,0.0612,0.0594,0.0594,0.0594,0,0,0.0462,0.047,0.0476,0.0491,0.0499,0.0509,0.0508,0.0519,0.0527,0.0531,0.0545,0.0551,0.0563,0.0578,0.0585,0.0584,0.0607,0.0601,0.0601,0.0602,0.0612,0.0613,0.0615,0.0595,0.0595,0.0595,0,0,0.0471,0.0478,0.0488,0.0496,0.0507,0.0513,0.0516,0.0528,0.0533,0.0547,0.055,0.056,0.0579,0.0588,0.0594,0.0608,0.061,0.0611,0.0616,0.0625,0.0627,0.0628,0.0634,0.0636,0.0613,0.0613,0.0613,0,0.0473,0.0488,0.0493,0.0504,0.0511,0.0515,0.0526,0.0533,0.0548,0.0553,0.0551,0.0576,0.0584,0.0601,0.0605,0.061,0.0614,0.061,0.0626,0.0627,0.0629,0.0634,0.0636,0.0613,0.0613,0.0613,0.0613,0,0.0489,0.05,0.0507,0.0521,0.0528,0.0539,0.0547,0.0555,0.0558,0.0564,0.0579,0.0589,0.0603,0.0607,0.061,0.0625,0.0624,0.0624,0.0621,0.063,0.0636,0.0638,0.0613,0.0613,0.0613,0.0613,0,0,0.0498,0.0515,0.0517,0.0524,0.0537,0.0546,0.0557,0.057,0.0577,0.0587,0.0597,0.0614,0.0614,0.0621,0.0626,0.0634,0.0645,0.0633,0.0633,0.0636,0.0664,0.0664,0.0666,0.0647,0.0647,0.0647,0.0663,0,0.0509,0.0529,0.0535,0.0552,0.0563,0.0567,0.0577,0.0586,0.0593,0.0603,0.061,0.0622,0.0621,0.0626,0.0634,0.0642,0.0651,0.0641,0.0657,0.0658,0.0655,0.0669,0.067,0.0684,0.0665,0.0665,0.0665,0,0.0525,0.0536,0.0554,0.0567,0.0571,0.058,0.0593,0.0602,0.0614,0.0618,0.0627,0.0631,0.0644,0.064,0.0659,0.0652,0.0659,0.0664,0.0665,0.0667,0.0663,0.0673,0.0688,0.0691,0.0669,0.0668,0.0668,0,0.0531,0.0549,0.0563,0.0568,0.0583,0.059,0.0596,0.0607,0.0615,0.0626,0.0632,0.0644,0.0651,0.0662,0.0669,0.0666,0.0688,0.0684,0.0692,0.0692,0.0697,0.0697,0.0715,0.0701,0.0701,0.07,0.07,0,0.0544,0.0555,0.0566,0.0574,0.0587,0.0594,0.0607,0.0614,0.0624,0.0634,0.0638,0.0648,0.0657,0.0669,0.0675,0.069,0.0693,0.0697,0.0699,0.0697,0.0697,0.0703,0.0702,0.0701,0.0701,0.0701,0.0701,0,0.0552,0.0559,0.0575,0.0588,0.0591,0.06,0.0612,0.0621,0.0627,0.064,0.0644,0.0655,0.0668,0.0677,0.0694,0.0698,0.0715,0.0716,0.0711,0.0712,0.072,0.072,0.0743,0.0747,0.0729,0.0729,0.073,0,0.056,0.0569,0.0583,0.059,0.0596,0.0608,0.0616,0.0623,0.0631,0.0645,0.0653,0.0666,0.0678,0.07,0.071,0.0723,0.0725,0.0732,0.0727,0.0726,0.0726,0.0726,0.0728,0.0733,0.0734,0.0734,0.0734,0,0.0574,0.0577,0.0588,0.06,0.061,0.062,0.063,0.0636,0.0645,0.0655,0.0668,0.0677,0.0695,0.0709,0.0724,0.0732,0.0735,0.0735,0.0738,0.0737,0.0734,0.0737,0.0715,0.0735,0.0735,0.0735,0.0735,0.0735,0.0583,0.0591,0.0602,0.0615,0.0623,0.0633,0.0642,0.065,0.0661,0.0676,0.068,0.0695,0.0707,0.0727,0.0735,0.0748,0.0747,0.075,0.0752,0.0753,0.0753,0.0732,0.075,0.075,0.075,0.075,0.075,0,0.0597,0.0605,0.0616,0.063,0.064,0.0642,0.0654,0.0662,0.0675,0.0686,0.0697,0.0714,0.0728,0.0739,0.0753,0.0761,0.0763,0.0765,0.0765,0.0767,0.0753,0.0749,0.0763,0.0763,0.0763,0.0763,0.0763,0.0763,0.0606,0.0621,0.0626,0.0645,0.0652,0.0667,0.0673,0.0683,0.0692,0.071,0.0721,0.0728,0.074,0.0755,0.0768,0.0771,0.0777,0.0779,0.0782,0.0769,0.0768,0.0766,0.0763,0.078,0.078,0.0795,0.0795,0.0795]}]]